Showing default

ECHOSTAR 19, 41893

Orbit data source: Space-Track

ECHOSTAR 19, 41893 is a payload satellite owned by Echostar/HNS (US) in GEO that was launched on Sun, 18 Dec 2016 UTC via an ATLAS V 431 launch vehicle from the Air Force Eastern Test Range (AFETR). Payload-class satellites include a variety of spacecraft equipped with specific instruments for various scientific and technological missions. These include communications satellites like Starlink; space stations such as the ISS; scientific satellites like the Hubble; Earth observation satellites from companies like Planet Labs, Umbra, and HawkEye 360; GPS; miniature CubeSats for education and research; and military/defense satellites.

Loading next visibility...
Identifier
41893, 2016-079A
Orbit
GEO
Country
Flag of USUS
Related business
Manufacturer
SS/Loral (MDA)
Mission
Operational Commercial Communications
Bus & Motor
SSL-1300E, R-4D
Mass
6,675 kg wet, ~4,500 kg dry
Launch date (UTC)
2016-12-18 (10 years ago)
Launch vehicle
ATLAS V 431
Launch site
Air Force Eastern Test Range (AFETR)
Object type
Payload
Rocket body
Debris
Shape & HBR
Box + 2 Pan, 13.1 m
Radar Cross Section
48.712 m², Large (>1 m²)

Expand to show TLE details & history
Last TLE update: 2 days ago

TLE from 2 days ago
0 ECHOSTAR 19
1 41893U 16079A   26170.94500515 -.00000145  00000-0  00000-0 0  9994
2 41893   0.0182  19.3424 0000925  75.8942  56.0290  1.00277305 34736
Epoch: 2026-06-19T22:40Z
TLE epoch observation values (Epoch: 2026-06-19T22:40:48.444Z)
Latitude
0.02496°
Longitude
-97.0815°
Altitude
35,782.35 km
Speed
3.075 km/s
True Right ascension
10h 05m 08s
True Declination
0° 01' 30"
Sunlit
Object was in daylight at epoch
Visualization orbit readout
Latitude
Unknown
Longitude
Unknown
Altitude
Unknown
Speed
Unknown
Apparent Right ascension
Unknown
Apparent Declination
Unknown
Sunlit
N/A
Visualization observer readout
Local Sidereal Time
21:37:51
Azimuth
Unknown
Elevation
Unknown
Doppler factor
Unknown
Orbital elements
Apogee altitude
35,790.018 km
Perigee altitude
35,782.218 km
Semi-major axis
42,164.255 km
Eccentricity
0.00009
Inclination
0.0182°
RAAN
19.3424°
Arg. of periapsis
75.8942°
True anomaly
56.03779°
Mean anomaly
56.029°
Eccentric anomaly
56.0334°
Mean motion
0.25068 °/min
Orbital period
1,436.07 mins
BSTAR
0
Loading maneuver chart data...
Computing Atmospheric mass density...
Loading historical data...
Loading historical data...
Loading historical data...
Loading historical data...
Loading historical data...
Loading historical data...
Loading historical data...
Other satellites on launch #79 in the year 2016 (2016-12-18 UTC)

Documentation

Showing up to 5 results
|